PACCTY Weather Reports


Display with metric or nautical units.
time (UTC)temp
F
wind
direction
speed
MPH
gust
MPH
rain 1hr
in
rain 24hr
in
rain mn
in
humidity
%
barometer
mb
20260508083523 46 0 0.0 0.0 0.00 0.00 0.00 95 1016.9
20260508083024 46 0 0.0 0.0 0.00 0.00 0.00 95 1016.8
20260508082522 46 0 0.0 0.0 0.00 0.00 0.00 95 1016.8
20260508082023 46 0 0.0 0.0 0.00 0.00 0.00 95 1016.7
20260508081523 46 0 0.0 0.0 0.00 0.00 0.00 95 1016.7
20260508081023 46 0 0.0 0.0 0.00 0.00 0.00 95 1016.6
20260508080523 46 0 0.0 0.0 0.00 0.00 0.00 95 1016.6
20260508080023 46 0 0.0 0.0 0.00 0.00 0.00 94 1016.7
20260508075523 46 0 0.0 0.0 0.00 0.00 0.00 94 1016.8
20260508075022 46 0 0.0 0.0 0.00 0.00 0.00 94 1016.8
20260508074523 46 0 0.0 0.0 0.00 0.00 0.00 94 1016.6
20260508074022 46 0 0.0 0.0 0.00 0.00 0.00 94 1016.6
20260508073523 46 0 0.0 0.0 0.00 0.00 0.00 93 1016.6
20260508073023 46 0 0.0 0.0 0.00 0.00 0.00 93 1016.5
20260508072522 47 0 0.0 0.0 0.00 0.00 0.00 92 1016.5
20260508071522 47 0 0.0 0.0 0.00 0.00 0.00 92 1016.5
20260508070022 48 0 0.0 0.0 0.00 0.00 0.00 92 1016.5
20260508065523 48 0 0.0 0.0 0.00 0.00 0.00 92 1016.4
20260508065023 48 0 0.0 0.0 0.00 0.00 0.00 92 1016.4
20260508064522 48 0 0.0 0.0 0.00 0.00 0.00 92 1016.2
20260508064023 48 0 0.0 0.0 0.00 0.00 0.00 92 1016.2
20260508063522 48 0 0.0 0.0 0.00 0.00 0.00 92 1016.3
20260508063022 48 0 0.0 0.0 0.00 0.00 0.00 92 1016.2
20260508062523 48 0 0.0 0.0 0.00 0.00 0.00 92 1016.2
20260508062023 48 0 0.0 0.0 0.00 0.00 0.00 92 1016.2
20260508061523 48 0 0.0 0.0 0.00 0.00 0.00 91 1016.1
20260508061022 48 0 0.0 0.0 0.00 0.00 0.00 91 1016.1
20260508060522 48 0 0.0 0.0 0.00 0.00 0.00 91 1016.0
20260508060022 48 0 0.0 0.0 0.00 0.00 0.00 91 1016.0
20260508055523 49 0 0.0 0.0 0.00 0.00 0.00 90 1015.9
20260508054023 49 0 0.0 0.0 0.00 0.00 0.00 90 1016.0
20260508053523 50 0 0.0 0.0 0.00 0.00 0.00 89 1015.9
20260508053023 50 0 0.0 0.0 0.00 0.00 0.00 88 1015.9
20260508052023 50 0 0.0 0.0 0.00 0.00 0.00 88 1015.9
20260508051522 50 0 0.0 0.0 0.00 0.00 0.00 87 1016.0
20260508051023 51 0 0.0 0.0 0.00 0.00 0.00 87 1016.0
20260508050523 51 0 0.0 0.0 0.00 0.00 0.00 87 1016.0
20260508050023 51 0 0.0 0.0 0.00 0.00 0.00 86 1016.0
20260508045523 51 0 0.0 0.0 0.00 0.00 0.00 86 1016.0
20260508045023 51 0 0.0 0.0 0.00 0.00 0.00 86 1015.9
20260508044023 51 0 0.0 0.0 0.00 0.00 0.00 86 1016.0
20260508043523 52 0 0.0 0.0 0.00 0.00 0.00 85 1015.9
20260508043023 52 0 0.0 0.0 0.00 0.00 0.00 85 1015.8
20260508042523 52 0 0.0 0.0 0.00 0.00 0.00 85 1015.9
20260508042023 52 0 0.0 0.0 0.00 0.00 0.00 85 1015.8
20260508041523 52 0 0.0 0.0 0.00 0.00 0.00 84 1015.7
20260508041023 52 0 0.0 0.0 0.00 0.00 0.00 84 1015.7
20260508040523 52 0 0.0 0.0 0.00 0.00 0.00 84 1015.7
20260508040023 52 0 0.0 0.0 0.00 0.00 0.00 84 1015.7
20260508035022 52 0 0.0 0.0 0.00 0.00 0.00 84 1015.6
20260508034523 53 0 0.0 0.0 0.00 0.00 0.00 84 1015.5
20260508033523 53 0 0.0 0.0 0.00 0.00 0.00 83 1015.5
20260508033023 53 0 0.0 0.0 0.00 0.00 0.00 83 1015.4
20260508032522 53 0 0.0 0.0 0.00 0.00 0.00 83 1015.4
20260508032022 53 0 0.0 0.0 0.00 0.00 0.00 82 1015.4
20260508030022 54 0 0.0 0.0 0.00 0.00 0.00 81 1015.1
20260508025523 54 0 0.0 0.0 0.00 0.00 0.00 81 1015.1
20260508025022 54 0 0.0 0.0 0.00 0.00 0.00 80 1015.2
20260508024522 54 0 0.0 0.0 0.00 0.00 0.00 80 1015.1
20260508024022 54 0 0.0 0.0 0.00 0.00 0.00 80 1015.2
20260508023522 54 0 0.0 0.0 0.00 0.00 0.00 79 1015.2
20260508023022 54 0 0.0 0.0 0.00 0.00 0.00 79 1015.2
20260508022522 55 0 0.0 3.0 0.00 0.00 0.00 78 1015.3
20260508022022 55 0 0.0 3.0 0.00 0.00 0.00 78 1015.3
20260508020022 55 16 0.0 3.0 0.00 0.00 0.00 77 1015.4
20260508011022 56 264 0.0 2.0 0.00 0.00 0.00 74 1015.8
20260508005523 57 0 0.0 0.0 0.00 0.00 0.00 72 1015.7
20260508005022 57 0 0.0 0.0 0.00 0.00 0.00 72 1015.9
20260508004522 58 0 0.0 0.0 0.00 0.00 0.00 71 1016.0
20260508004022 58 0 0.0 0.0 0.00 0.00 0.00 71 1016.2
20260508003522 59 0 0.0 9.0 0.00 0.00 0.00 70 1016.2
20260508003022 59 233 0.0 9.0 0.00 0.00 0.00 70 1016.3
20260508002522 59 259 5.0 7.0 0.00 0.00 0.00 70 1016.4
20260508002022 59 259 1.0 7.0 0.00 0.00 0.00 70 1016.3
20260508001522 59 219 2.0 7.0 0.00 0.00 0.00 69 1016.3
20260508001022 60 210 3.0 7.0 0.00 0.00 0.00 69 1016.3
20260508000522 60 253 1.0 4.0 0.00 0.00 0.00 69 1016.3
20260508000022 60 217 0.0 4.0 0.00 0.00 0.00 69 1016.3
20260507235022 61 260 0.0 8.0 0.00 0.00 0.00 67 1016.3
20260507234522 61 198 0.0 8.0 0.00 0.00 0.00 66 1016.3
20260507233522 62 204 1.0 10.0 0.00 0.00 0.00 65 1016.4
20260507232522 63 225 0.0 10.0 0.00 0.00 0.00 65 1016.5
20260507232023 63 263 0.0 6.0 0.00 0.00 0.00 65 1016.5
20260507231022 63 210 0.0 1.0 0.00 0.00 0.00 65 1016.7
20260507225522 63 233 3.0 5.0 0.00 0.00 0.00 67 1016.9
20260507224522 62 238 1.0 5.0 0.00 0.00 0.00 66 1017.1
20260507224022 62 259 0.0 5.0 0.00 0.00 0.00 65 1017.2
20260507223022 63 236 0.0 2.0 0.00 0.00 0.00 67 1017.4
20260507220522 62 317 0.0 5.0 0.00 0.00 0.00 67 1017.6
20260507214022 63 289 0.0 4.0 0.00 0.07 0.00 65 1017.8
20260507211022 63 228 3.0 8.0 0.00 0.07 0.00 66 1017.8
20260507210022 63 266 3.0 9.0 0.00 0.07 0.00 65 1017.7
20260507204022 62 253 2.0 8.0 0.00 0.07 0.00 65 1017.7
20260507202522 63 232 2.0 9.0 0.00 0.07 0.00 66 1017.8
20260507201022 63 235 3.0 5.0 0.00 0.07 0.00 68 1017.9
20260507200522 63 235 1.0 5.0 0.00 0.07 0.00 67 1017.8
20260507194522 62 218 2.0 5.0 0.00 0.07 0.00 68 1018.0
20260507193022 62 232 4.0 7.0 0.00 0.07 0.00 69 1018.1
20260507192522 61 236 3.0 6.0 0.00 0.07 0.00 69 1018.2
20260507180022 58 221 1.0 4.0 0.00 0.07 0.00 73 1018.7
20260507175522 58 263 2.0 7.0 0.00 0.07 0.00 74 1018.8
20260507174522 57 242 2.0 7.0 0.00 0.07 0.00 75 1018.9
20260507172522 56 0 0.0 0.0 0.00 0.07 0.00 76 1019.0
20260507172022 56 0 0.0 0.0 0.00 0.07 0.00 78 1019.1
20260507161021 54 0 0.0 0.0 0.00 0.07 0.00 81 1019.4
20260507155021 54 0 0.0 0.0 0.00 0.07 0.00 83 1019.4
20260507154021 54 0 0.0 0.0 0.00 0.07 0.00 83 1019.5
20260507153521 54 0 0.0 0.0 0.00 0.07 0.00 81 1019.5
20260507153021 54 0 0.0 0.0 0.00 0.07 0.00 83 1019.5
20260507152522 54 0 0.0 0.0 0.00 0.07 0.00 84 1019.5
20260507150521 53 0 0.0 0.0 0.00 0.07 0.00 86 1019.4
20260507150022 53 0 0.0 0.0 0.00 0.07 0.00 86 1019.5
20260507145521 53 0 0.0 0.0 0.00 0.07 0.00 87 1019.5
20260507145021 53 0 0.0 0.0 0.00 0.07 0.00 87 1019.4
20260507144021 53 0 0.0 0.0 0.00 0.07 0.00 88 1019.4
20260507143021 53 0 0.0 0.0 0.00 0.07 0.00 86 1019.4
20260507142522 52 0 0.0 0.0 0.00 0.07 0.00 87 1019.4
20260507142021 53 0 0.0 0.0 0.00 0.07 0.00 86 1019.5
20260507140521 52 0 0.0 0.0 0.00 0.07 0.00 85 1019.3
20260507140112 52 0 0.0 0.0 0.00 0.07 0.00 84 1019.3
20260507140021 52 0 0.0 0.0 0.00 0.07 0.00 84 1019.3
20260507135521 52 0 0.0 0.0 0.00 0.07 0.00 84 1019.3
20260507135021 52 0 0.0 0.0 0.00 0.07 0.00 85 1019.2
20260507134522 52 0 0.0 0.0 0.00 0.07 0.00 85 1019.2
20260507133521 52 0 0.0 0.0 0.00 0.07 0.00 86 1019.1
20260507133021 52 0 0.0 0.0 0.00 0.07 0.00 87 1019.1
20260507132021 52 0 0.0 0.0 0.00 0.07 0.00 87 1019.0
20260507131021 52 0 0.0 0.0 0.00 0.07 0.00 87 1019.1
20260507130523 52 0 0.0 0.0 0.00 0.07 0.00 87 1019.1
20260507130021 52 0 0.0 0.0 0.00 0.07 0.00 87 1019.1
20260507125521 52 0 0.0 0.0 0.00 0.07 0.00 87 1019.0
20260507125021 52 0 0.0 0.0 0.00 0.07 0.00 87 1019.0
20260507124022 52 0 0.0 0.0 0.00 0.07 0.00 87 1019.1
20260507123521 52 0 0.0 0.0 0.00 0.07 0.00 87 1019.0
20260507123021 52 0 0.0 0.0 0.00 0.07 0.00 87 1019.1
20260507122021 52 0 0.0 0.0 0.00 0.07 0.00 86 1019.3
20260507120021 52 0 0.0 0.0 0.00 0.07 0.00 87 1019.3
20260507115521 52 0 0.0 0.0 0.00 0.07 0.00 87 1019.4
20260507115021 52 0 0.0 0.0 0.00 0.07 0.00 87 1019.4
20260507114021 52 0 0.0 0.0 0.00 0.07 0.00 88 1019.5
20260507113521 52 0 0.0 0.0 0.00 0.07 0.00 88 1019.5
20260507113023 52 0 0.0 0.0 0.00 0.07 0.00 88 1019.5
20260507112020 53 0 0.0 0.0 0.00 0.07 0.00 88 1019.5
20260507111023 53 0 0.0 0.0 0.00 0.07 0.00 88 1019.5
20260507110022 53 0 0.0 0.0 0.00 0.07 0.00 88 1019.6
20260507105521 53 0 0.0 0.0 0.00 0.07 0.00 88 1019.5
20260507105021 53 0 0.0 0.0 0.00 0.07 0.00 88 1019.5
20260507104523 53 0 0.0 0.0 0.00 0.07 0.00 88 1019.6
20260507104021 53 0 0.0 0.0 0.00 0.07 0.00 88 1019.6
20260507103522 53 0 0.0 0.0 0.00 0.07 0.00 88 1019.7
20260507102021 53 0 0.0 0.0 0.00 0.07 0.00 88 1019.8
20260507101522 53 0 0.0 0.0 0.00 0.07 0.00 89 1019.8
20260507101021 53 0 0.0 0.0 0.00 0.07 0.00 89 1019.8
20260507100520 53 0 0.0 0.0 0.00 0.07 0.00 89 1019.8
20260507100021 53 0 0.0 0.0 0.00 0.07 0.00 89 1019.9
20260507095521 53 0 0.0 0.0 0.00 0.07 0.00 89 1019.9
20260507095021 53 0 0.0 0.0 0.00 0.07 0.00 89 1020.0
20260507094021 53 0 0.0 0.0 0.00 0.07 0.00 89 1020.0
20260507093021 53 0 0.0 0.0 0.00 0.07 0.00 89 1020.0
20260507092521 53 0 0.0 0.0 0.00 0.07 0.00 89 1020.1
20260507091522 53 0 0.0 0.0 0.00 0.07 0.00 89 1020.1
20260507091021 53 0 0.0 0.0 0.00 0.07 0.00 89 1020.2
20260507090521 53 0 0.0 0.0 0.00 0.07 0.00 88 1020.2
20260507085521 53 0 0.0 0.0 0.00 0.07 0.00 89 1020.3
20260507085021 53 0 0.0 0.0 0.00 0.07 0.00 89 1020.3